Year,Month,Day,Hour,Minute,Value (Times are PST for temperature in C)
2014,07,30,00,00,15.40
2014,07,30,00,01,15.30
2014,07,30,00,02,15.30
2014,07,30,00,03,15.30
2014,07,30,00,04,15.30
2014,07,30,00,05,15.30
2014,07,30,00,06,15.30
2014,07,30,00,07,15.30
2014,07,30,00,08,15.30
2014,07,30,00,09,15.30
2014,07,30,00,10,15.30
2014,07,30,00,11,15.30
2014,07,30,00,12,15.30
2014,07,30,00,13,15.30
2014,07,30,00,14,15.30
2014,07,30,00,15,15.30
2014,07,30,00,16,15.30
2014,07,30,00,17,15.30
2014,07,30,00,18,15.20
2014,07,30,00,19,15.20
2014,07,30,00,20,15.20
2014,07,30,00,21,15.20
2014,07,30,00,22,15.20
2014,07,30,00,23,15.20
2014,07,30,00,24,15.20
2014,07,30,00,25,15.20
2014,07,30,00,26,15.20
2014,07,30,00,27,15.20
2014,07,30,00,28,15.20
2014,07,30,00,29,15.20
2014,07,30,00,30,15.20
2014,07,30,00,31,15.20
2014,07,30,00,32,15.20
2014,07,30,00,33,15.20
2014,07,30,00,34,15.20
2014,07,30,00,35,15.20
2014,07,30,00,36,15.20
2014,07,30,00,37,15.20
2014,07,30,00,38,15.20
2014,07,30,00,39,15.20
2014,07,30,00,40,15.20
2014,07,30,00,41,15.20
2014,07,30,00,42,15.20
2014,07,30,00,43,15.20
2014,07,30,00,44,15.20
2014,07,30,00,45,15.20
2014,07,30,00,46,15.20
2014,07,30,00,47,15.20
2014,07,30,00,48,15.10
2014,07,30,00,49,15.10
2014,07,30,00,50,15.10
2014,07,30,00,51,15.10
2014,07,30,00,52,15.10
2014,07,30,00,53,15.10
2014,07,30,00,54,15.10
2014,07,30,00,55,15.10
2014,07,30,00,56,15.00
2014,07,30,00,57,15.00
2014,07,30,00,58,15.00
2014,07,30,00,59,15.00
2014,07,30,01,00,14.90
2014,07,30,01,01,14.90
2014,07,30,01,02,14.90
2014,07,30,01,03,14.90
2014,07,30,01,04,14.90
2014,07,30,01,05,14.90
2014,07,30,01,06,14.90
2014,07,30,01,07,14.90
2014,07,30,01,08,14.90
2014,07,30,01,09,14.90
2014,07,30,01,10,14.90
2014,07,30,01,11,14.90
2014,07,30,01,12,14.90
2014,07,30,01,13,14.90
2014,07,30,01,14,14.90
2014,07,30,01,15,14.90
2014,07,30,01,16,14.90
2014,07,30,01,17,14.90
2014,07,30,01,18,14.90
2014,07,30,01,19,14.90
2014,07,30,01,20,14.90
2014,07,30,01,21,14.90
2014,07,30,01,22,14.90
2014,07,30,01,23,14.90
2014,07,30,01,24,14.90
2014,07,30,01,25,14.90
2014,07,30,01,26,14.90
2014,07,30,01,27,14.90
2014,07,30,01,28,14.90
2014,07,30,01,29,14.90
2014,07,30,01,30,14.90
2014,07,30,01,31,14.90
2014,07,30,01,32,14.90
2014,07,30,01,33,14.90
2014,07,30,01,34,14.90
2014,07,30,01,35,14.90
2014,07,30,01,36,14.90
2014,07,30,01,37,14.80
2014,07,30,01,38,14.80
2014,07,30,01,39,14.80
2014,07,30,01,40,14.80
2014,07,30,01,41,14.80
2014,07,30,01,42,14.80
2014,07,30,01,43,14.90
2014,07,30,01,44,14.90
2014,07,30,01,45,14.80
2014,07,30,01,46,14.80
2014,07,30,01,47,14.90
2014,07,30,01,48,14.90
2014,07,30,01,49,14.90
2014,07,30,01,50,14.90
2014,07,30,01,51,14.90
2014,07,30,01,52,14.90
2014,07,30,01,53,14.90
2014,07,30,01,54,14.90
2014,07,30,01,55,14.90
2014,07,30,01,56,14.90
2014,07,30,01,57,14.90
2014,07,30,01,58,14.90
2014,07,30,01,59,14.90
2014,07,30,02,00,14.90
2014,07,30,02,01,14.90
2014,07,30,02,02,14.90
2014,07,30,02,03,14.90
2014,07,30,02,04,14.90
2014,07,30,02,05,14.90
2014,07,30,02,06,14.90
2014,07,30,02,07,14.90
2014,07,30,02,08,14.90
2014,07,30,02,09,14.90
2014,07,30,02,10,14.90
2014,07,30,02,11,14.90
2014,07,30,02,12,14.90
2014,07,30,02,13,15.00
2014,07,30,02,14,15.00
2014,07,30,02,15,15.00
2014,07,30,02,16,15.00
2014,07,30,02,17,15.00
2014,07,30,02,18,15.00
2014,07,30,02,19,15.00
2014,07,30,02,20,15.00
2014,07,30,02,21,15.00
2014,07,30,02,22,14.90
2014,07,30,02,23,14.90
2014,07,30,02,24,14.90
2014,07,30,02,25,14.90
2014,07,30,02,26,14.90
2014,07,30,02,27,14.90
2014,07,30,02,28,14.90
2014,07,30,02,29,14.90
2014,07,30,02,30,14.90
2014,07,30,02,31,14.90
2014,07,30,02,32,14.90
2014,07,30,02,33,14.90
2014,07,30,02,34,14.90
2014,07,30,02,35,14.90
2014,07,30,02,36,14.90
2014,07,30,02,37,14.90
2014,07,30,02,38,14.80
2014,07,30,02,39,14.80
2014,07,30,02,40,14.80
2014,07,30,02,41,14.80
2014,07,30,02,42,14.80
2014,07,30,02,43,14.80
2014,07,30,02,44,14.80
2014,07,30,02,45,14.80
2014,07,30,02,46,14.80
2014,07,30,02,47,14.80
2014,07,30,02,48,14.80
2014,07,30,02,49,14.70
2014,07,30,02,50,14.70
2014,07,30,02,51,14.70
2014,07,30,02,52,14.70
2014,07,30,02,53,14.70
2014,07,30,02,54,14.70
2014,07,30,02,55,14.70
2014,07,30,02,56,14.70
2014,07,30,02,57,14.70
2014,07,30,02,58,14.60
2014,07,30,02,59,14.60
2014,07,30,03,00,14.60
2014,07,30,03,01,14.60
2014,07,30,03,02,14.60
2014,07,30,03,03,14.60
2014,07,30,03,04,14.60
2014,07,30,03,05,14.50
2014,07,30,03,06,14.50
2014,07,30,03,07,14.50
2014,07,30,03,08,14.40
2014,07,30,03,09,14.40
2014,07,30,03,10,14.40
2014,07,30,03,11,14.40
2014,07,30,03,12,14.40
2014,07,30,03,13,14.40
2014,07,30,03,14,14.30
2014,07,30,03,15,14.30
2014,07,30,03,16,14.30
2014,07,30,03,17,14.30
2014,07,30,03,18,14.30
2014,07,30,03,19,14.30
2014,07,30,03,20,14.20
2014,07,30,03,21,14.20
2014,07,30,03,22,14.20
2014,07,30,03,23,14.20
2014,07,30,03,24,14.20
2014,07,30,03,25,14.20
2014,07,30,03,26,14.20
2014,07,30,03,27,14.20
2014,07,30,03,28,14.20
2014,07,30,03,29,14.20
2014,07,30,03,30,14.20
2014,07,30,03,31,14.20
2014,07,30,03,32,14.20
2014,07,30,03,33,14.20
2014,07,30,03,34,14.20
2014,07,30,03,35,14.10
2014,07,30,03,36,14.10
2014,07,30,03,37,14.20
2014,07,30,03,38,14.10
2014,07,30,03,39,14.10
2014,07,30,03,40,14.10
2014,07,30,03,41,14.20
2014,07,30,03,42,14.20
2014,07,30,03,43,14.10
2014,07,30,03,44,14.20
2014,07,30,03,45,14.20
2014,07,30,03,46,14.20
2014,07,30,03,47,14.20
2014,07,30,03,48,14.20
2014,07,30,03,49,14.20
2014,07,30,03,50,14.20
2014,07,30,03,51,14.20
2014,07,30,03,52,14.20
2014,07,30,03,53,14.20
2014,07,30,03,54,14.20
2014,07,30,03,55,14.20
2014,07,30,03,56,14.10
2014,07,30,03,57,14.20
2014,07,30,03,58,14.10
2014,07,30,03,59,14.10
2014,07,30,04,00,14.10
2014,07,30,04,01,14.10
2014,07,30,04,02,14.10
2014,07,30,04,03,14.10
2014,07,30,04,04,14.10
2014,07,30,04,05,14.10
2014,07,30,04,06,14.10
2014,07,30,04,07,14.10
2014,07,30,04,08,14.10
2014,07,30,04,09,14.10
2014,07,30,04,10,14.10
2014,07,30,04,11,14.10
2014,07,30,04,12,14.10
2014,07,30,04,13,14.10
2014,07,30,04,14,14.10
2014,07,30,04,15,14.10
2014,07,30,04,16,14.10
2014,07,30,04,17,14.10
2014,07,30,04,18,14.00
2014,07,30,04,19,14.00
2014,07,30,04,20,14.00
2014,07,30,04,21,14.00
2014,07,30,04,22,14.00
2014,07,30,04,23,14.00
2014,07,30,04,24,13.90
2014,07,30,04,25,13.90
2014,07,30,04,26,13.90
2014,07,30,04,27,13.90
2014,07,30,04,28,13.90
2014,07,30,04,29,13.80
2014,07,30,04,30,13.80
2014,07,30,04,31,13.80
2014,07,30,04,32,13.80
2014,07,30,04,33,13.80
2014,07,30,04,34,13.80
2014,07,30,04,35,13.80
2014,07,30,04,36,13.80
2014,07,30,04,37,13.70
2014,07,30,04,38,13.70
2014,07,30,04,39,13.70
2014,07,30,04,40,13.70
2014,07,30,04,41,13.70
2014,07,30,04,42,13.70
2014,07,30,04,43,13.70
2014,07,30,04,44,13.70
2014,07,30,04,45,13.70
2014,07,30,04,46,13.60
2014,07,30,04,47,13.60
2014,07,30,04,48,13.60
2014,07,30,04,49,13.60
2014,07,30,04,50,13.60
2014,07,30,04,51,13.60
2014,07,30,04,52,13.60
2014,07,30,04,53,13.60
2014,07,30,04,54,13.50
2014,07,30,04,55,13.50
2014,07,30,04,56,13.50
2014,07,30,04,57,13.50
2014,07,30,04,58,13.40
2014,07,30,04,59,13.40
2014,07,30,05,00,13.40
2014,07,30,05,01,13.40
2014,07,30,05,02,13.40
2014,07,30,05,03,13.40
2014,07,30,05,04,13.40
2014,07,30,05,05,13.30
2014,07,30,05,06,13.30
2014,07,30,05,07,13.30
2014,07,30,05,08,13.30
2014,07,30,05,09,13.30
2014,07,30,05,10,13.30
2014,07,30,05,11,13.30
2014,07,30,05,12,13.20
2014,07,30,05,13,13.20
2014,07,30,05,14,13.20
2014,07,30,05,15,13.20
2014,07,30,05,16,13.20
2014,07,30,05,17,13.20
2014,07,30,05,18,13.20
2014,07,30,05,19,13.20
2014,07,30,05,20,13.10
2014,07,30,05,21,13.10
2014,07,30,05,22,13.10
2014,07,30,05,23,13.10
2014,07,30,05,24,13.10
2014,07,30,05,25,13.10
2014,07,30,05,26,13.10
2014,07,30,05,27,13.00
2014,07,30,05,28,13.00
2014,07,30,05,29,13.00
2014,07,30,05,30,13.00
2014,07,30,05,31,12.90
2014,07,30,05,32,12.90
2014,07,30,05,33,12.90
2014,07,30,05,34,12.90
2014,07,30,05,35,12.90
2014,07,30,05,36,12.90
2014,07,30,05,37,12.80
2014,07,30,05,38,12.80
2014,07,30,05,39,12.80
2014,07,30,05,40,12.80
2014,07,30,05,41,12.80
2014,07,30,05,42,12.80
2014,07,30,05,43,12.80
2014,07,30,05,44,12.80
2014,07,30,05,45,12.80
2014,07,30,05,46,12.80
2014,07,30,05,47,12.80
2014,07,30,05,48,12.70
2014,07,30,05,49,12.70
2014,07,30,05,50,12.70
2014,07,30,05,51,12.70
2014,07,30,05,52,12.70
2014,07,30,05,53,12.70
2014,07,30,05,54,12.70
2014,07,30,05,55,12.70
2014,07,30,05,56,12.70
2014,07,30,05,57,12.70
2014,07,30,05,58,12.70
2014,07,30,05,59,12.70
2014,07,30,06,00,12.70
2014,07,30,06,01,12.70
2014,07,30,06,02,12.70
2014,07,30,06,03,12.70
2014,07,30,06,04,12.70
2014,07,30,06,05,12.70
2014,07,30,06,06,12.70
2014,07,30,06,07,12.70
2014,07,30,06,08,12.70
2014,07,30,06,09,12.70
2014,07,30,06,10,12.70
2014,07,30,06,11,12.70
2014,07,30,06,12,12.70
2014,07,30,06,13,12.70
2014,07,30,06,14,12.70
2014,07,30,06,15,12.70
2014,07,30,06,16,12.70
2014,07,30,06,17,12.70
2014,07,30,06,18,12.70
2014,07,30,06,19,12.70
2014,07,30,06,20,12.70
2014,07,30,06,21,12.70
2014,07,30,06,22,12.70
2014,07,30,06,23,12.70
2014,07,30,06,24,12.70
2014,07,30,06,25,12.70
2014,07,30,06,26,12.70
2014,07,30,06,27,12.70
2014,07,30,06,28,12.70
2014,07,30,06,29,12.70
2014,07,30,06,30,12.70
2014,07,30,06,31,12.70
2014,07,30,06,32,12.70
2014,07,30,06,33,12.70
2014,07,30,06,34,12.70
2014,07,30,06,35,12.70
2014,07,30,06,36,12.70
2014,07,30,06,37,12.70
2014,07,30,06,38,12.70
2014,07,30,06,39,12.80
2014,07,30,06,40,12.80
2014,07,30,06,41,12.80
2014,07,30,06,42,12.80
2014,07,30,06,43,12.80
2014,07,30,06,44,12.80
2014,07,30,06,45,12.90
2014,07,30,06,46,12.90
2014,07,30,06,47,12.90
2014,07,30,06,48,13.00
2014,07,30,06,49,13.00
2014,07,30,06,50,13.10
2014,07,30,06,51,13.10
2014,07,30,06,52,13.10
2014,07,30,06,53,13.20
2014,07,30,06,54,13.20
2014,07,30,06,55,13.20
2014,07,30,06,56,13.30
2014,07,30,06,57,13.30
2014,07,30,06,58,13.30
2014,07,30,06,59,13.40
2014,07,30,07,00,13.40
2014,07,30,07,01,13.50
2014,07,30,07,02,13.50
2014,07,30,07,03,13.60
2014,07,30,07,04,13.60
2014,07,30,07,05,13.70
2014,07,30,07,06,13.70
2014,07,30,07,07,13.70
2014,07,30,07,08,13.80
2014,07,30,07,09,13.80
2014,07,30,07,10,13.90
2014,07,30,07,11,13.90
2014,07,30,07,12,14.00
2014,07,30,07,13,14.00
2014,07,30,07,14,14.10
2014,07,30,07,15,14.20
2014,07,30,07,16,14.20
2014,07,30,07,17,14.30
2014,07,30,07,18,14.30
2014,07,30,07,19,14.40
2014,07,30,07,20,14.40
2014,07,30,07,21,14.50
2014,07,30,07,22,14.50
2014,07,30,07,23,14.60
2014,07,30,07,24,14.60
2014,07,30,07,25,14.70
2014,07,30,07,26,14.70
2014,07,30,07,27,14.70
2014,07,30,07,28,14.80
2014,07,30,07,29,14.80
2014,07,30,07,30,14.80
2014,07,30,07,31,14.90
2014,07,30,07,32,14.90
2014,07,30,07,33,15.00
2014,07,30,07,34,15.00
2014,07,30,07,35,15.10
2014,07,30,07,36,15.10
2014,07,30,07,37,15.10
2014,07,30,07,38,15.20
2014,07,30,07,39,15.20
2014,07,30,07,40,15.30
2014,07,30,07,41,15.30
2014,07,30,07,42,15.30
2014,07,30,07,43,15.40
2014,07,30,07,44,15.40
2014,07,30,07,45,15.40
2014,07,30,07,46,15.50
2014,07,30,07,47,15.60
2014,07,30,07,48,15.60
2014,07,30,07,49,15.70
2014,07,30,07,50,15.80
2014,07,30,07,51,15.80
2014,07,30,07,52,15.90
2014,07,30,07,53,16.00
2014,07,30,07,54,16.10
2014,07,30,07,55,16.20
2014,07,30,07,56,16.30
2014,07,30,07,57,16.30
2014,07,30,07,58,16.40
2014,07,30,07,59,16.50
2014,07,30,08,00,16.60
2014,07,30,08,01,16.70
2014,07,30,08,02,16.80
2014,07,30,08,03,16.90
2014,07,30,08,04,17.00
2014,07,30,08,05,17.10
2014,07,30,08,06,17.20
2014,07,30,08,07,17.30
2014,07,30,08,08,17.40
2014,07,30,08,09,17.50
2014,07,30,08,10,17.50
2014,07,30,08,11,17.60
2014,07,30,08,12,17.70
2014,07,30,08,13,17.70
2014,07,30,08,14,17.80
2014,07,30,08,15,17.80
2014,07,30,08,16,17.90
2014,07,30,08,17,18.00
2014,07,30,08,18,18.00
2014,07,30,08,19,18.10
2014,07,30,08,20,18.20
2014,07,30,08,21,18.20
2014,07,30,08,22,18.30
2014,07,30,08,23,18.30
2014,07,30,08,24,18.40
2014,07,30,08,25,18.40
2014,07,30,08,26,18.50
2014,07,30,08,27,18.60
2014,07,30,08,28,18.70
2014,07,30,08,29,18.70
2014,07,30,08,30,18.70
2014,07,30,08,31,18.80
2014,07,30,08,32,18.80
2014,07,30,08,33,18.80
2014,07,30,08,34,18.80
2014,07,30,08,35,18.80
2014,07,30,08,36,18.70
2014,07,30,08,37,18.70
2014,07,30,08,38,18.70
2014,07,30,08,39,18.70
2014,07,30,08,40,18.70
2014,07,30,08,41,18.70
2014,07,30,08,42,18.70
2014,07,30,08,43,18.70
2014,07,30,08,44,18.70
2014,07,30,08,45,18.70
2014,07,30,08,46,18.60
2014,07,30,08,47,18.60
2014,07,30,08,48,18.60
2014,07,30,08,49,18.60
2014,07,30,08,50,18.50
2014,07,30,08,51,18.50
2014,07,30,08,52,18.50
2014,07,30,08,53,18.50
2014,07,30,08,54,18.50
2014,07,30,08,55,18.50
2014,07,30,08,56,18.50
2014,07,30,08,57,18.50
2014,07,30,08,58,18.50
2014,07,30,08,59,18.50
2014,07,30,09,00,18.50
2014,07,30,09,01,18.50
2014,07,30,09,02,18.50
2014,07,30,09,03,18.50
2014,07,30,09,04,18.50
2014,07,30,09,05,18.50
2014,07,30,09,06,18.50
2014,07,30,09,07,18.60
2014,07,30,09,08,18.60
2014,07,30,09,09,18.60
2014,07,30,09,10,18.60
2014,07,30,09,11,18.60
2014,07,30,09,12,18.60
2014,07,30,09,13,18.70
2014,07,30,09,14,18.70
2014,07,30,09,15,18.70
2014,07,30,09,16,18.70
2014,07,30,09,17,18.70
2014,07,30,09,18,18.80
2014,07,30,09,19,18.80
2014,07,30,09,20,18.80
2014,07,30,09,21,18.80
2014,07,30,09,22,18.80
2014,07,30,09,23,18.80
2014,07,30,09,24,18.80
2014,07,30,09,25,18.80
2014,07,30,09,26,18.80
2014,07,30,09,27,18.90
2014,07,30,09,28,18.90
2014,07,30,09,29,18.90
2014,07,30,09,30,18.90
2014,07,30,09,31,19.00
2014,07,30,09,32,19.00
2014,07,30,09,33,19.00
2014,07,30,09,34,19.10
2014,07,30,09,35,19.10
2014,07,30,09,36,19.10
2014,07,30,09,37,19.10
2014,07,30,09,38,19.10
2014,07,30,09,39,19.10
2014,07,30,09,40,19.10
2014,07,30,09,41,19.10
2014,07,30,09,42,19.10
2014,07,30,09,43,19.10
2014,07,30,09,44,19.10
2014,07,30,09,45,19.10
2014,07,30,09,46,19.10
2014,07,30,09,47,19.10
2014,07,30,09,48,19.10
2014,07,30,09,49,19.10
2014,07,30,09,50,19.10
2014,07,30,09,51,19.10
2014,07,30,09,52,19.10
2014,07,30,09,53,19.10
2014,07,30,09,54,19.20
2014,07,30,09,55,19.20
2014,07,30,09,56,19.20
2014,07,30,09,57,19.20
2014,07,30,09,58,19.30
2014,07,30,09,59,19.30
2014,07,30,10,00,19.30
2014,07,30,10,01,19.40
2014,07,30,10,02,19.40
2014,07,30,10,03,19.40
2014,07,30,10,04,19.50
2014,07,30,10,05,19.50
2014,07,30,10,06,19.60
2014,07,30,10,07,19.50
2014,07,30,10,08,19.50
2014,07,30,10,09,19.50
2014,07,30,10,10,19.50
2014,07,30,10,11,19.60
2014,07,30,10,12,19.70
2014,07,30,10,13,19.70
2014,07,30,10,14,19.70
2014,07,30,10,15,19.70
2014,07,30,10,16,19.70
2014,07,30,10,17,19.60
2014,07,30,10,18,19.60
2014,07,30,10,19,19.50
2014,07,30,10,20,19.40
2014,07,30,10,21,19.40
2014,07,30,10,22,19.30
2014,07,30,10,23,19.30
2014,07,30,10,24,19.20
2014,07,30,10,25,19.10
2014,07,30,10,26,19.10
2014,07,30,10,27,19.00
2014,07,30,10,28,18.90
2014,07,30,10,29,18.90
2014,07,30,10,30,18.80
2014,07,30,10,31,18.80
2014,07,30,10,32,18.80
2014,07,30,10,33,18.80
2014,07,30,10,34,18.80
2014,07,30,10,35,18.80
2014,07,30,10,36,18.80
2014,07,30,10,37,18.80
2014,07,30,10,38,18.80
2014,07,30,10,39,18.80
2014,07,30,10,40,18.80
2014,07,30,10,41,18.80
2014,07,30,10,42,18.80
2014,07,30,10,43,18.70
2014,07,30,10,44,18.70
2014,07,30,10,45,18.70
2014,07,30,10,46,18.70
2014,07,30,10,47,18.70
2014,07,30,10,48,18.70
2014,07,30,10,49,18.70
2014,07,30,10,50,18.70
2014,07,30,10,51,18.70
2014,07,30,10,52,18.70
2014,07,30,10,53,18.70
2014,07,30,10,54,18.70
2014,07,30,10,55,18.70
2014,07,30,10,56,18.70
2014,07,30,10,57,18.70
2014,07,30,10,58,18.70
2014,07,30,10,59,18.60
2014,07,30,11,00,18.60
2014,07,30,11,01,18.60
2014,07,30,11,02,18.50
2014,07,30,11,03,18.50
2014,07,30,11,04,18.50
2014,07,30,11,05,18.40
2014,07,30,11,06,18.40
2014,07,30,11,07,18.50
2014,07,30,11,08,18.50
2014,07,30,11,09,18.40
2014,07,30,11,10,18.50
2014,07,30,11,11,18.50
2014,07,30,11,12,18.60
2014,07,30,11,13,18.60
2014,07,30,11,14,18.60
2014,07,30,11,15,18.60
2014,07,30,11,16,18.60
2014,07,30,11,17,18.60
2014,07,30,11,18,18.50
2014,07,30,11,19,18.50
2014,07,30,11,20,18.40
2014,07,30,11,21,18.40
2014,07,30,11,22,18.30
2014,07,30,11,23,18.30
2014,07,30,11,24,18.30
2014,07,30,11,25,18.20
2014,07,30,11,26,18.20
2014,07,30,11,27,18.10
2014,07,30,11,28,18.00
2014,07,30,11,29,18.00
2014,07,30,11,30,18.00
2014,07,30,11,31,17.90
2014,07,30,11,32,17.90
2014,07,30,11,33,18.00
2014,07,30,11,34,18.00
2014,07,30,11,35,18.00
2014,07,30,11,36,18.00
2014,07,30,11,37,18.00
2014,07,30,11,38,18.10
2014,07,30,11,39,18.10
2014,07,30,11,40,18.10
2014,07,30,11,41,18.00
2014,07,30,11,42,18.00
2014,07,30,11,43,18.00
2014,07,30,11,44,17.90
2014,07,30,11,45,17.90
2014,07,30,11,46,17.90
2014,07,30,11,47,17.90
2014,07,30,11,48,17.80
2014,07,30,11,49,17.80
2014,07,30,11,50,17.80
2014,07,30,11,51,17.80
2014,07,30,11,52,17.80
2014,07,30,11,53,17.80
2014,07,30,11,54,17.80
2014,07,30,11,55,17.80
2014,07,30,11,56,17.80
2014,07,30,11,57,17.80
2014,07,30,11,58,17.90
2014,07,30,11,59,17.90
2014,07,30,12,00,18.00
2014,07,30,12,01,18.00
2014,07,30,12,02,18.10
2014,07,30,12,03,18.10
2014,07,30,12,04,18.20
2014,07,30,12,05,18.30
2014,07,30,12,06,18.30
2014,07,30,12,07,18.30
2014,07,30,12,08,18.30
2014,07,30,12,09,18.30
2014,07,30,12,10,18.40
2014,07,30,12,11,18.30
2014,07,30,12,12,18.30
2014,07,30,12,13,18.30
2014,07,30,12,14,18.30
2014,07,30,12,15,18.30
2014,07,30,12,16,18.30
2014,07,30,12,17,18.40
2014,07,30,12,18,18.40
2014,07,30,12,19,18.40
2014,07,30,12,20,18.40
2014,07,30,12,21,18.30
2014,07,30,12,22,18.30
2014,07,30,12,23,18.30
2014,07,30,12,24,18.30
2014,07,30,12,25,18.30
2014,07,30,12,26,18.40
2014,07,30,12,27,18.40
2014,07,30,12,28,18.40
2014,07,30,12,29,18.50
2014,07,30,12,30,18.60
2014,07,30,12,31,18.70
2014,07,30,12,32,18.80
2014,07,30,12,33,18.80
2014,07,30,12,34,18.90
2014,07,30,12,35,19.00
2014,07,30,12,36,19.10
2014,07,30,12,37,19.10
2014,07,30,12,38,19.20
2014,07,30,12,39,19.20
2014,07,30,12,40,19.30
2014,07,30,12,41,19.30
2014,07,30,12,42,19.40
2014,07,30,12,43,19.50
2014,07,30,12,44,19.60
2014,07,30,12,45,19.70
2014,07,30,12,46,19.70
2014,07,30,12,47,19.80
2014,07,30,12,48,19.90
2014,07,30,12,49,20.00
2014,07,30,12,50,20.10
2014,07,30,12,51,20.20
2014,07,30,12,52,20.30
2014,07,30,12,53,20.40
2014,07,30,12,54,20.50
2014,07,30,12,55,20.60
2014,07,30,12,56,20.70
2014,07,30,12,57,20.80
2014,07,30,12,58,20.90
2014,07,30,12,59,21.00
2014,07,30,13,00,21.10
2014,07,30,13,01,21.20
2014,07,30,13,02,21.30
2014,07,30,13,03,21.40
2014,07,30,13,04,21.40
2014,07,30,13,05,21.50
2014,07,30,13,06,21.60
2014,07,30,13,07,21.60
2014,07,30,13,08,21.70
2014,07,30,13,09,21.70
2014,07,30,13,10,21.80
2014,07,30,13,11,21.80
2014,07,30,13,12,21.90
2014,07,30,13,13,21.90
2014,07,30,13,14,21.90
2014,07,30,13,15,21.90
2014,07,30,13,16,21.90
2014,07,30,13,17,21.90
2014,07,30,13,18,22.00
2014,07,30,13,19,22.10
2014,07,30,13,20,22.10
2014,07,30,13,21,22.20
2014,07,30,13,22,22.20
2014,07,30,13,23,22.30
2014,07,30,13,24,22.30
2014,07,30,13,25,22.40
2014,07,30,13,26,22.40
2014,07,30,13,27,22.50
2014,07,30,13,28,22.50
2014,07,30,13,29,22.60
2014,07,30,13,30,22.60
2014,07,30,13,31,22.50
2014,07,30,13,32,22.50
2014,07,30,13,33,22.40
2014,07,30,13,34,22.40
2014,07,30,13,35,22.50
2014,07,30,13,36,22.50
2014,07,30,13,37,22.60
2014,07,30,13,38,22.60
2014,07,30,13,39,22.60
2014,07,30,13,40,22.70
2014,07,30,13,41,22.70
2014,07,30,13,42,22.70
2014,07,30,13,43,22.70
2014,07,30,13,44,22.60
2014,07,30,13,45,22.60
2014,07,30,13,46,22.50
2014,07,30,13,47,22.40
2014,07,30,13,48,22.40
2014,07,30,13,49,22.50
2014,07,30,13,50,22.50
2014,07,30,13,51,22.60
2014,07,30,13,52,22.60
2014,07,30,13,53,22.70
2014,07,30,13,54,22.70
2014,07,30,13,55,22.80
2014,07,30,13,56,22.80
2014,07,30,13,57,22.80
2014,07,30,13,58,22.80
2014,07,30,13,59,22.80
2014,07,30,14,00,22.90
2014,07,30,14,01,22.90
2014,07,30,14,02,22.90
2014,07,30,14,03,22.90
2014,07,30,14,04,23.00
2014,07,30,14,05,23.00
2014,07,30,14,06,23.00
2014,07,30,14,07,23.10
2014,07,30,14,08,23.10
2014,07,30,14,09,23.10
2014,07,30,14,10,23.10
2014,07,30,14,11,23.00
2014,07,30,14,12,22.90
2014,07,30,14,13,22.80
2014,07,30,14,14,22.60
2014,07,30,14,15,22.60
2014,07,30,14,16,22.50
2014,07,30,14,17,22.40
2014,07,30,14,18,22.30
2014,07,30,14,19,22.20
2014,07,30,14,20,22.10
2014,07,30,14,21,22.00
2014,07,30,14,22,21.90
2014,07,30,14,23,21.80
2014,07,30,14,24,21.70
2014,07,30,14,25,21.50
2014,07,30,14,26,21.40
2014,07,30,14,27,21.30
2014,07,30,14,28,21.20
2014,07,30,14,29,21.00
2014,07,30,14,30,20.80
2014,07,30,14,31,20.60
2014,07,30,14,32,20.30
2014,07,30,14,33,20.10
2014,07,30,14,34,19.90
2014,07,30,14,35,19.80
2014,07,30,14,36,19.60
2014,07,30,14,37,19.50
2014,07,30,14,38,19.30
2014,07,30,14,39,19.20
2014,07,30,14,40,19.10
2014,07,30,14,41,18.90
2014,07,30,14,42,18.90
2014,07,30,14,43,18.80
2014,07,30,14,44,18.70
2014,07,30,14,45,18.60
2014,07,30,14,46,18.60
2014,07,30,14,47,18.40
2014,07,30,14,48,18.40
2014,07,30,14,49,18.30
2014,07,30,14,50,18.20
2014,07,30,14,51,18.20
2014,07,30,14,52,18.20
2014,07,30,14,53,18.20
2014,07,30,14,54,18.30
2014,07,30,14,55,18.30
2014,07,30,14,56,18.30
2014,07,30,14,57,18.30
2014,07,30,14,58,18.20
2014,07,30,14,59,18.20
2014,07,30,15,00,18.10
2014,07,30,15,01,18.00
2014,07,30,15,02,17.90
2014,07,30,15,03,17.80
2014,07,30,15,04,17.70
2014,07,30,15,05,17.60
2014,07,30,15,06,17.50
2014,07,30,15,07,17.50
2014,07,30,15,08,17.40
2014,07,30,15,09,17.40
2014,07,30,15,10,17.40
2014,07,30,15,11,17.30
2014,07,30,15,12,17.30
2014,07,30,15,13,17.30
2014,07,30,15,14,17.30
2014,07,30,15,15,17.20
2014,07,30,15,16,17.20
2014,07,30,15,17,17.10
2014,07,30,15,18,17.00
2014,07,30,15,19,16.90
2014,07,30,15,20,16.80
2014,07,30,15,21,16.80
2014,07,30,15,22,16.80
2014,07,30,15,23,16.80
2014,07,30,15,24,16.80
2014,07,30,15,25,16.80
2014,07,30,15,26,16.80
2014,07,30,15,27,16.80
2014,07,30,15,28,16.90
2014,07,30,15,29,16.90
2014,07,30,15,30,17.00
2014,07,30,15,31,17.00
2014,07,30,15,32,16.90
2014,07,30,15,33,16.90
2014,07,30,15,34,16.90
2014,07,30,15,35,16.80
2014,07,30,15,36,16.80
2014,07,30,15,37,16.90
2014,07,30,15,38,16.90
2014,07,30,15,39,16.90
2014,07,30,15,40,16.90
2014,07,30,15,41,16.90
2014,07,30,15,42,16.80
2014,07,30,15,43,16.80
2014,07,30,15,44,16.90
2014,07,30,15,45,16.90
2014,07,30,15,46,17.00
2014,07,30,15,47,16.90
2014,07,30,15,48,16.90
2014,07,30,15,49,17.00
2014,07,30,15,50,17.00
2014,07,30,15,51,17.00
2014,07,30,15,52,17.10
2014,07,30,15,53,17.10
2014,07,30,15,54,17.10
2014,07,30,15,55,17.00
2014,07,30,15,56,17.00
2014,07,30,15,57,17.00
2014,07,30,15,58,17.00
2014,07,30,15,59,16.90
2014,07,30,16,00,16.90
2014,07,30,16,01,16.90
2014,07,30,16,02,17.00
2014,07,30,16,03,17.00
2014,07,30,16,04,17.10
2014,07,30,16,05,17.20
2014,07,30,16,06,17.20
2014,07,30,16,07,17.20
2014,07,30,16,08,17.30
2014,07,30,16,09,17.30
2014,07,30,16,10,17.40
2014,07,30,16,11,17.40
2014,07,30,16,12,17.50
2014,07,30,16,13,17.60
2014,07,30,16,14,17.60
2014,07,30,16,15,17.70
2014,07,30,16,16,17.70
2014,07,30,16,17,17.80
2014,07,30,16,18,17.80
2014,07,30,16,19,17.80
2014,07,30,16,20,17.90
2014,07,30,16,21,17.90
2014,07,30,16,22,17.90
2014,07,30,16,23,18.00
2014,07,30,16,24,18.10
2014,07,30,16,25,18.20
2014,07,30,16,26,18.20
2014,07,30,16,27,18.30
2014,07,30,16,28,18.30
2014,07,30,16,29,18.30
2014,07,30,16,30,18.40
2014,07,30,16,31,18.50
2014,07,30,16,32,18.60
2014,07,30,16,33,18.60
2014,07,30,16,34,18.70
2014,07,30,16,35,18.70
2014,07,30,16,36,18.80
2014,07,30,16,37,18.80
2014,07,30,16,38,18.80
2014,07,30,16,39,18.90
2014,07,30,16,40,18.90
2014,07,30,16,41,19.00
2014,07,30,16,42,19.10
2014,07,30,16,43,19.10
2014,07,30,16,44,19.20
2014,07,30,16,45,19.20
2014,07,30,16,46,19.30
2014,07,30,16,47,19.40
2014,07,30,16,48,19.50
2014,07,30,16,49,19.60
2014,07,30,16,50,19.70
2014,07,30,16,51,19.80
2014,07,30,16,52,19.90
2014,07,30,16,53,20.10
2014,07,30,16,54,20.30
2014,07,30,16,55,20.40
2014,07,30,16,56,20.60
2014,07,30,16,57,20.70
2014,07,30,16,58,20.90
2014,07,30,16,59,21.00
2014,07,30,17,00,21.20
2014,07,30,17,01,21.30
2014,07,30,17,02,21.40
2014,07,30,17,03,21.60
2014,07,30,17,04,21.70
2014,07,30,17,05,21.80
2014,07,30,17,06,22.00
2014,07,30,17,07,22.10
2014,07,30,17,08,22.20
2014,07,30,17,09,22.30
2014,07,30,17,10,22.40
2014,07,30,17,11,22.60
2014,07,30,17,12,22.70
2014,07,30,17,13,22.80
2014,07,30,17,14,22.90
2014,07,30,17,15,23.00
2014,07,30,17,16,23.10
2014,07,30,17,17,23.20
2014,07,30,17,18,23.30
2014,07,30,17,19,23.40